| time (UTC) | temp F | wind direction | speed MPH | gust MPH | rain 1hr in | rain 24hr in | rain mn in | humidity % | barometer mb |
| 20260510094523 | 63 | 55 | 1.0 | 3.0 | 0.00 | 0.00 | 0.00 | 80 | 1012.9 |
| 20260510093011 | 64 | 55 | 0.0 | 0.0 | 0.00 | 0.00 | 0.00 | 78 | 1012.9 |
| 20260510091512 | 64 | 55 | 0.0 | 1.0 | 0.00 | 0.00 | 0.00 | 77 | 1012.8 |
| 20260510090002 | 65 | 55 | 1.0 | 4.0 | 0.00 | 0.00 | 0.00 | 75 | 1012.3 |
| 20260510084602 | 65 | 282 | 0.0 | 3.0 | 0.00 | 0.01 | 0.00 | 74 | 1012.0 |
| 20260510083059 | 66 | 44 | 3.0 | 5.0 | 0.00 | 0.01 | 0.00 | 73 | 1011.1 |
| 20260510081556 | 66 | 23 | 5.0 | 9.0 | 0.00 | 0.01 | 0.00 | 72 | 1010.8 |
| 20260510080054 | 66 | 5 | 1.0 | 3.0 | 0.00 | 0.01 | 0.00 | 72 | 1010.3 |
| 20260510074553 | 67 | 190 | 2.0 | 7.0 | 0.00 | 0.01 | 0.00 | 70 | 1008.6 |
| 20260510073050 | 67 | 139 | 2.0 | 6.0 | 0.00 | 0.01 | 0.00 | 71 | 1010.7 |
| 20260510071552 | 68 | 238 | 2.0 | 12.0 | 0.00 | 0.01 | 0.00 | 69 | 1012.0 |
| 20260510070045 | 69 | 157 | 3.0 | 9.0 | 0.00 | 0.01 | 0.00 | 66 | 1011.7 |
| 20260510064542 | 68 | 239 | 6.0 | 14.0 | 0.00 | 0.01 | 0.00 | 68 | 1014.0 |
| 20260510063041 | 68 | 211 | 2.0 | 7.0 | 0.00 | 0.01 | 0.00 | 71 | 1013.5 |
| 20260510061541 | 69 | 155 | 1.0 | 5.0 | 0.00 | 0.01 | 0.00 | 67 | 1013.1 |
| 20260510060037 | 69 | 65 | 0.0 | 0.0 | 0.00 | 0.01 | 0.00 | 66 | 1013.3 |
| 20260510054536 | 69 | 355 | 0.0 | 2.0 | 0.00 | 0.01 | 0.00 | 69 | 1014.0 |
| 20260510053051 | 69 | 15 | 1.0 | 5.0 | 0.00 | 0.01 | 0.00 | 66 | 1014.0 |
| 20260510051531 | 69 | 40 | 2.0 | 4.0 | 0.00 | 0.01 | 0.00 | 68 | 1013.7 |
| 20260510050027 | 67 | 22 | 1.0 | 3.0 | 0.00 | 0.01 | 0.00 | 71 | 1013.3 |
| 20260510044526 | 68 | 101 | 0.0 | 0.0 | 0.00 | 0.02 | 0.01 | 73 | 1012.8 |
| 20260510043037 | 69 | 101 | 0.0 | 0.0 | 0.00 | 0.02 | 0.01 | 67 | 1012.5 |
| 20260510041527 | 69 | 101 | 0.0 | 0.0 | 0.00 | 0.02 | 0.01 | 65 | 1012.1 |
| 20260510040033 | 69 | 101 | 0.0 | 0.0 | 0.00 | 0.02 | 0.01 | 66 | 1011.9 |
| 20260510034521 | 69 | 101 | 0.0 | 0.0 | 0.00 | 0.02 | 0.01 | 63 | 1011.7 |
| 20260510033021 | 69 | 101 | 0.0 | 0.0 | 0.00 | 0.02 | 0.01 | 64 | 1011.9 |
| 20260510031523 | 70 | 101 | 0.0 | 2.0 | 0.00 | 0.02 | 0.01 | 61 | 1011.9 |
| 20260510030019 | 69 | 101 | 0.0 | 1.0 | 0.00 | 0.02 | 0.01 | 62 | 1011.9 |
| 20260510024519 | 70 | 101 | 0.0 | 0.0 | 0.00 | 0.02 | 0.01 | 63 | 1011.4 |
| 20260510023018 | 70 | 101 | 0.0 | 0.0 | 0.00 | 0.02 | 0.01 | 58 | 1010.9 |
| 20260510021531 | 71 | 101 | 0.0 | 0.0 | 0.00 | 0.02 | 0.01 | 58 | 1010.3 |
| 20260510020017 | 72 | 101 | 0.0 | 0.0 | 0.00 | 0.02 | 0.01 | 53 | 1009.9 |
| 20260510014519 | 73 | 101 | 0.0 | 0.0 | 0.00 | 0.02 | 0.01 | 51 | 1009.5 |
| 20260510013023 | 75 | 101 | 0.0 | 0.0 | 0.00 | 0.02 | 0.01 | 48 | 1009.4 |
| 20260510011515 | 77 | 101 | 0.0 | 1.0 | 0.00 | 0.02 | 0.01 | 45 | 1009.3 |
| 20260510010015 | 79 | 101 | 0.0 | 0.0 | 0.00 | 0.02 | 0.01 | 45 | 1009.2 |
| 20260510004517 | 79 | 101 | 0.0 | 1.0 | 0.00 | 0.20 | 0.01 | 43 | 1009.2 |
| 20260510003014 | 80 | 101 | 0.0 | 1.0 | 0.00 | 0.20 | 0.01 | 44 | 1008.9 |
| 20260510001513 | 81 | 133 | 1.0 | 4.0 | 0.00 | 0.20 | 0.01 | 43 | 1008.9 |
| 20260510000012 | 82 | 136 | 1.0 | 4.0 | 0.00 | 0.20 | 0.01 | 42 | 1008.9 |
| 20260509234511 | 82 | 139 | 1.0 | 4.0 | 0.00 | 0.52 | 0.01 | 43 | 1009.1 |
| 20260509233010 | 83 | 175 | 0.0 | 6.0 | 0.00 | 0.52 | 0.01 | 40 | 1009.1 |
| 20260509231507 | 83 | 132 | 2.0 | 8.0 | 0.00 | 0.52 | 0.01 | 36 | 1009.2 |
| 20260509230008 | 83 | 161 | 2.0 | 5.0 | 0.00 | 0.52 | 0.01 | 34 | 1009.6 |
| 20260509224507 | 83 | 182 | 1.0 | 6.0 | 0.00 | 0.52 | 0.01 | 35 | 1009.6 |
| 20260509223003 | 84 | 31 | 1.0 | 5.0 | 0.00 | 0.52 | 0.01 | 36 | 1009.5 |
| 20260509221502 | 85 | 159 | 1.0 | 3.0 | 0.00 | 0.52 | 0.01 | 33 | 1009.7 |
| 20260509220002 | 84 | 137 | 2.0 | 5.0 | 0.00 | 0.52 | 0.01 | 34 | 1009.7 |
| 20260509214631 | 84 | 169 | 0.0 | 4.0 | 0.00 | 0.52 | 0.01 | 36 | 1009.7 |
| 20260509213100 | 83 | 116 | 2.0 | 5.0 | 0.00 | 0.52 | 0.01 | 34 | 1009.8 |
| 20260509211556 | 84 | 135 | 2.0 | 9.0 | 0.00 | 0.52 | 0.01 | 38 | 1010.0 |
| 20260509210100 | 84 | 194 | 0.0 | 8.0 | 0.00 | 0.52 | 0.01 | 43 | 1010.3 |
| 20260509204552 | 84 | 118 | 3.0 | 8.0 | 0.00 | 0.52 | 0.01 | 36 | 1010.5 |
| 20260509203100 | 84 | 205 | 1.0 | 5.0 | 0.00 | 0.52 | 0.01 | 34 | 1010.5 |
| 20260509201548 | 84 | 119 | 2.0 | 8.0 | 0.00 | 0.52 | 0.01 | 32 | 1010.5 |
| 20260509200047 | 84 | 171 | 0.0 | 6.0 | 0.00 | 0.52 | 0.01 | 40 | 1010.8 |
| 20260509194549 | 84 | 105 | 0.0 | 4.0 | 0.00 | 0.52 | 0.01 | 36 | 1010.9 |
| 20260509193046 | 83 | 138 | 2.0 | 4.0 | 0.00 | 0.52 | 0.01 | 38 | 1011.0 |
| 20260509191555 | 84 | 115 | 0.0 | 3.0 | 0.00 | 0.52 | 0.01 | 37 | 1011.1 |
| 20260509190041 | 83 | 150 | 0.0 | 4.0 | 0.00 | 0.52 | 0.01 | 40 | 1010.9 |
| 20260509184545 | 83 | 68 | 1.0 | 3.0 | 0.00 | 0.52 | 0.01 | 46 | 1011.0 |
| 20260509183046 | 82 | 186 | 0.0 | 3.0 | 0.00 | 0.52 | 0.01 | 53 | 1011.2 |
| 20260509181530 | 81 | 254 | 1.0 | 4.0 | 0.00 | 0.52 | 0.01 | 47 | 1011.3 |
| 20260509180027 | 81 | 128 | 0.0 | 3.0 | 0.00 | 0.52 | 0.01 | 50 | 1011.5 |
| 20260509174524 | 79 | 252 | 0.0 | 4.0 | 0.00 | 0.52 | 0.01 | 61 | 1011.5 |
| 20260509173022 | 79 | 142 | 1.0 | 4.0 | 0.00 | 0.52 | 0.01 | 61 | 1011.8 |
| 20260509171519 | 78 | 163 | 0.0 | 4.0 | 0.00 | 0.52 | 0.01 | 66 | 1011.9 |
| 20260509170022 | 77 | 134 | 0.0 | 3.0 | 0.00 | 0.52 | 0.01 | 65 | 1012.1 |
| 20260509164513 | 76 | 157 | 0.0 | 5.0 | 0.00 | 0.52 | 0.01 | 70 | 1012.3 |
| 20260509163011 | 75 | 247 | 0.0 | 3.0 | 0.00 | 0.52 | 0.01 | 72 | 1012.2 |
| 20260509161505 | 75 | 123 | 0.0 | 6.0 | 0.00 | 0.52 | 0.01 | 72 | 1012.1 |
| 20260509160002 | 73 | 153 | 0.0 | 0.0 | 0.00 | 0.52 | 0.01 | 76 | 1012.0 |
| 20260509154558 | 73 | 117 | 0.0 | 0.0 | 0.00 | 0.52 | 0.01 | 81 | 1011.9 |
| 20260509153105 | 71 | 143 | 0.0 | 2.0 | 0.00 | 0.52 | 0.01 | 82 | 1011.9 |
| 20260509151553 | 70 | 139 | 1.0 | 3.0 | 0.00 | 0.52 | 0.01 | 82 | 1011.9 |
| 20260509150047 | 68 | 156 | 0.0 | 3.0 | 0.00 | 0.52 | 0.01 | 87 | 1011.9 |
| 20260509144542 | 66 | 137 | 0.0 | 1.0 | 0.00 | 0.52 | 0.01 | 92 | 1011.9 |
| 20260509143040 | 65 | 121 | 0.0 | 3.0 | 0.00 | 0.52 | 0.01 | 94 | 1012.0 |
| 20260509141535 | 63 | 150 | 0.0 | 0.0 | 0.00 | 0.52 | 0.01 | 96 | 1012.0 |
| 20260509140032 | 62 | 152 | 0.0 | 0.0 | 0.00 | 0.52 | 0.01 | 97 | 1011.9 |
| 20260509134528 | 60 | 152 | 0.0 | 0.0 | 0.00 | 0.52 | 0.01 | 97 | 1011.7 |
| 20260509133027 | 60 | 74 | 0.0 | 1.0 | 0.00 | 0.52 | 0.01 | 97 | 1011.3 |
| 20260509131524 | 59 | 355 | 0.0 | 1.0 | 0.00 | 0.52 | 0.01 | 97 | 1011.2 |
| 20260509130032 | 57 | 355 | 0.0 | 1.0 | 0.00 | 0.52 | 0.01 | 97 | 1011.3 |
| 20260509124523 | 56 | 355 | 0.0 | 1.0 | 0.00 | 0.52 | 0.01 | 97 | 1010.9 |
| 20260509123022 | 55 | 355 | 0.0 | 2.0 | 0.00 | 0.52 | 0.01 | 96 | 1010.8 |
| 20260509121525 | 54 | 355 | 0.0 | 1.0 | 0.00 | 0.52 | 0.01 | 96 | 1010.8 |
| 20260509120021 | 54 | 355 | 0.0 | 0.0 | 0.00 | 0.52 | 0.01 | 96 | 1010.6 |
| 20260509114520 | 54 | 355 | 0.0 | 0.0 | 0.00 | 0.52 | 0.01 | 96 | 1010.5 |
| 20260509113019 | 54 | 355 | 0.0 | 0.0 | 0.00 | 0.52 | 0.01 | 96 | 1010.5 |
| 20260509111518 | 54 | 355 | 0.0 | 0.0 | 0.00 | 0.52 | 0.01 | 96 | 1010.4 |
| 20260509110017 | 54 | 355 | 0.0 | 0.0 | 0.00 | 0.52 | 0.01 | 96 | 1010.4 |
| 20260509104516 | 54 | 355 | 0.0 | 0.0 | 0.00 | 0.52 | 0.01 | 95 | 1010.5 |
| 20260509103014 | 54 | 355 | 0.0 | 0.0 | 0.00 | 0.52 | 0.01 | 96 | 1010.5 |
| 20260509101521 | 54 | 355 | 0.0 | 0.0 | 0.00 | 0.52 | 0.01 | 96 | 1010.4 |
| 20260509100011 | 55 | 355 | 0.0 | 0.0 | 0.00 | 0.52 | 0.01 | 96 | 1010.4 |